Pagina principale
METAR-TAF:

METAR-TAF

Aeroporti :

Jendouba, Tunisia

latitudine: 36-29N, longitudine: 008-48E, altezza: 143 m

Osservazione

Il bollettino è stato emesso 1 ora e 13 minuti fa, alle 14:00 UTC
Vento 4 kt da nord/nord-est
Temperature 22°C
Umidità 38%
Pressione 1011 hPa
Visibilità 10 km o più
Nubi sparse ad un'altezza di 2000 ft

METAR: DTTN 061400Z 02004KT 9999 SCT020 22/07 Q1011

Ora: 16:13 (15:13 UTC)


TAF: mancante

Osservazioni e previsioni meteorologiche di più di 4000 aeroporti (messaggi METAR e TAF).

Le stazioni disponibili sono rappresentate dai dischi gialli e rossi sulla carta.

Puntare il mouse per vedere il nome della stazione.

Clicca sopra per visualizzare le osservazioni e previsioni meteorologiche.

Per cambiare la mappa : fare clic sui pulsanti verdi con una croce nera per ingrandire, il pulsante verde con un trattino per diminuire, o sulla freccia verde per le mappe adiacenti.


METAR-TAF: